Date,TemperatureHighF,TemperatureAvgF,TemperatureLowF,DewpointHighF,DewpointAvgF,DewpointLowF,HumidityHigh,HumidityAvg,HumidityLow,PressureMaxIn,PressureMinIn,WindSpeedMaxMPH,WindSpeedAvgMPH,GustSpeedMaxMPH,PrecipitationSumIn
2013-4-1,66.0,57.7,49.0,53.8,50.5,46.7,94,78,60,30.20,30.03,8,0,8,0.00
2013-4-2,69.2,57.1,50.3,52.5,49.2,47.0,90,76,49,30.25,30.15,8,1,8,0.00
2013-4-3,67.1,55.4,41.9,53.4,48.5,40.6,97,79,55,30.22,29.94,5,0,6,0.00
2013-4-4,61.4,56.5,52.9,58.7,52.7,49.5,95,87,76,29.94,29.73,13,1,13,0.19
2013-4-5,61.5,55.3,50.7,53.5,50.7,49.0,94,85,68,29.98,29.85,11,2,14,0.23
2013-4-6,58.0,51.1,45.5,50.5,47.4,42.8,97,88,61,30.04,29.75,12,1,17,0.97
2013-4-7,56.6,49.1,43.0,49.5,44.6,40.2,96,85,64,30.01,29.59,22,2,22,0.20
2013-4-8,56.0,47.7,41.1,48.2,43.6,39.5,96,87,64,30.34,30.01,7,0,8,0.05
2013-4-9,58.8,49.8,39.4,49.0,43.9,37.8,97,81,59,30.41,30.28,5,0,6,0.00
2013-4-10,62.0,53.9,46.3,55.7,46.9,38.6,94,78,53,30.38,30.14,13,2,17,0.24
2013-4-11,58.7,48.4,36.8,46.0,41.3,35.3,97,78,56,30.40,30.22,7,0,8,0.00
2013-4-12,55.3,46.3,35.9,47.7,41.5,34.1,96,84,62,30.23,29.90,8,0,8,0.08
2013-4-13,57.1,46.9,38.9,42.9,39.0,34.2,95,75,52,30.14,29.96,12,1,20,0.07
2013-4-14,55.7,44.9,39.1,43.9,40.8,36.6,96,86,60,30.13,29.98,10,1,10,0.14
2013-4-15,58.1,47.3,37.5,44.3,39.6,32.8,98,78,42,30.22,29.99,11,1,12,0.06
2013-4-16,61.7,48.0,36.2,45.1,40.0,35.1,98,77,39,30.44,30.22,14,1,16,0.04
2013-4-17,63.9,48.3,34.0,45.3,39.5,32.7,97,74,40,30.54,30.44,9,1,12,0.00
2013-4-18,61.8,53.4,46.4,49.8,44.2,40.5,94,72,53,30.53,30.35,8,1,8,0.03
2013-4-19,58.8,53.3,49.8,54.3,50.1,47.0,96,89,75,30.35,30.19,9,1,11,0.36
2013-4-20,62.5,53.6,48.7,48.0,45.8,42.6,93,76,52,30.38,30.29,10,1,11,0.00
2013-4-21,56.0,50.5,44.6,49.8,45.7,42.0,94,84,70,30.36,30.29,6,0,8,0.02
2013-4-22,69.0,52.5,37.1,45.1,37.2,27.2,97,64,22,30.48,30.36,14,2,14,0.01
2013-4-23,70.8,54.2,36.7,42.6,35.5,27.1,92,56,20,30.42,30.18,16,2,21,0.00
2013-4-24,77.8,58.3,37.3,43.5,36.9,32.3,91,51,22,30.31,30.04,13,2,15,0.00
2013-4-25,79.4,59.7,40.9,50.1,42.7,36.9,92,58,27,30.19,30.05,8,1,11,0.00
2013-4-26,82.0,61.2,43.1,53.0,46.0,31.3,96,64,16,30.29,30.19,9,1,9,0.00
2013-4-27,75.8,58.6,42.5,49.1,44.4,39.5,94,63,29,30.30,30.22,15,2,15,0.00
2013-4-28,72.0,59.6,52.1,52.0,46.7,36.0,90,65,30,30.30,30.11,11,1,11,0.00
2013-4-29,64.3,53.9,42.7,49.7,40.8,30.6,93,64,31,30.27,30.09,13,2,15,0.10
2013-4-30,58.8,47.8,38.2,42.0,37.1,33.7,91,68,43,30.49,30.27,10,1,11,0.01